This demonstration page uses our WeatherBlox Daily Observations layout. Learn more.

Left ArrowRight Arrow

40.92945, -100.16068

Hourly Observations for February 1, 2021

Temp ( °F °C ) Dew Point ( °F °C ) Humidity (%) Winds ( mph kmh ) Pressure ( in mb ) Visibility ( mi km ) Precip ( " mm )
12:15 am 00:15 Clear with Mist and Fog 20 -6.7 18 -7.7 93 93 N N/A 30.54 1034 5 8.0467 N/A
12:35 am 00:35 Clear 20 -6.8 18 -7.9 92 92 WNW 3 6 30.54 1034 7 11.26538 N/A
12:55 am 00:55 Clear 19 -7.5 17 -8.6 92 92 WNW 5 7 30.55 1034 7 11.26538 N/A
1:15 am 01:15 Clear 19 -7.3 17 -8.5 91 91 WNW 3 6 30.53 1034 10 16.0934 N/A
1:35 am 01:35 Clear 20 -6.6 18 -7.6 93 93 W 3 6 30.52 1033 10 16.0934 N/A
1:55 am 01:55 Clear 17 -8.2 15 -9.5 90 90 W 9 15 30.53 1034 10 16.0934 N/A
2:15 am 02:15 Clear 18 -7.8 16 -8.9 92 92 W 5 7 30.54 1034 10 16.0934 N/A
2:35 am 02:35 Clear 18 -7.9 15 -9.2 91 91 WNW 5 7 30.53 1034 10 16.0934 N/A
2:55 am 02:55 Clear 19 -7.5 17 -8.5 93 93 W 3 6 30.53 1034 10 16.0934 N/A
3:15 am 03:15 Clear 18 -7.7 16 -8.7 93 93 W 3 6 30.53 1034 10 16.0934 N/A
3:35 am 03:35 Clear 18 -8 16 -9.1 92 92 W 5 7 30.52 1034 10 16.0934 N/A
3:55 am 03:55 Clear 18 -8 15 -9.2 91 91 W 6 9 30.52 1034 10 16.0934 N/A
4:15 am 04:15 Clear 16 -8.7 14 -10 90 90 W 5 7 30.53 1034 10 16.0934 N/A
4:35 am 04:35 Clear 17 -8.4 15 -9.6 91 91 W 3 6 30.53 1034 10 16.0934 N/A
4:55 am 04:55 Clear 17 -8.5 15 -9.7 91 91 W 6 9 30.53 1034 10 16.0934 N/A
5:15 am 05:15 Clear 16 -8.7 14 -10.1 90 90 W 5 7 30.52 1033 10 16.0934 N/A
5:35 am 05:35 Clear 15 -9.6 12 -11 90 90 N N/A 30.52 1033 10 16.0934 N/A
5:55 am 05:55 Clear 16 -8.9 14 -10.2 90 90 N N/A 30.51 1033 10 16.0934 N/A
6:15 am 06:15 Clear with Mist and Fog 14 -9.8 12 -11.1 90 90 N N/A 30.52 1034 4 6.43736 N/A
6:35 am 06:35 Mostly Cloudy with Mist and Fog 15 -9.3 13 -10.5 91 91 N N/A 30.51 1033 1.5 2.41401 N/A
6:55 am 06:55 Partly Cloudy 15 -9.7 12 -11.1 90 90 N N/A 30.52 1033 10 16.0934 N/A
7:15 am 07:15 Clear 16 -9.1 13 -10.4 90 90 N N/A 30.51 1033 10 16.0934 N/A
7:35 am 07:35 Clear 16 -9.1 13 -10.4 90 90 N N/A 30.51 1033 10 16.0934 N/A
7:55 am 07:55 Sunny 17 -8.5 15 -9.6 92 92 N N/A 30.5 1033 10 16.0934 N/A
8:15 am 08:15 Sunny 15 -9.2 13 -10.5 90 90 N N/A 30.51 1033 10 16.0934 N/A
8:35 am 08:35 Sunny 15 -9.4 13 -10.6 91 91 N N/A 30.51 1033 10 16.0934 N/A
8:55 am 08:55 Sunny 17 -8.5 15 -9.7 91 91 N N/A 30.5 1033 10 16.0934 N/A
9:15 am 09:15 Sunny 18 -7.9 16 -9.1 91 91 N N/A 30.49 1032 10 16.0934 N/A
9:35 am 09:35 Sunny 19 -7 17 -8.2 91 91 N N/A 30.48 1032 7 11.26538 N/A
9:55 am 09:55 Sunny 25 -3.8 24 -4.5 95 95 E 3 6 30.45 1031 10 16.0934 N/A
10:15 am 10:15 Sunny 26 -3.1 25 -3.9 94 94 ESE 7 11 30.44 1031 10 16.0934 N/A
10:35 am 10:35 Sunny 28 -2.3 27 -3 95 95 SE 6 9 30.43 1031 10 16.0934 N/A
10:55 am 10:55 Sunny 29 -1.8 27 -2.6 94 94 ESE 5 7 30.43 1030 10 16.0934 N/A
11:15 am 11:15 Sunny 31 -0.3 29 -1.7 90 90 ESE 6 9 30.41 1030 10 16.0934 N/A
11:35 am 11:35 Sunny 33 0.4 28 -2.4 82 82 SE 7 11 30.39 1029 10 16.0934 N/A
11:55 am 11:55 Sunny 35 1.5 28 -2.1 77 77 SE 7 11 30.36 1028 10 16.0934 N/A
12:15 pm 12:15 Sunny 37 2.5 28 -2.2 71 71 SE 8 13 30.34 1028 10 16.0934 N/A
12:35 pm 12:35 Sunny 37 3 28 -2 70 70 SSE 9 15 30.33 1027 10 16.0934 N/A
12:55 pm 12:55 Sunny 38 3.1 29 -1.6 72 72 SSE 9 15 30.33 1027 10 16.0934 N/A
1:15 pm 13:15 Sunny 38 3.5 29 -1.5 70 70 SSE 10 17 30.31 1027 10 16.0934 N/A
1:35 pm 13:35 Sunny 38 3.6 30 -1.3 71 71 SSE 10 17 30.3 1026 10 16.0934 N/A
1:55 pm 13:55 Sunny 38 3.6 30 -1.2 71 71 SSE 10 17 30.29 1026 10 16.0934 N/A
2:15 pm 14:15 Sunny 39 4 30 -1.1 70 70 SSE 9 15 30.27 1025 10 16.0934 N/A
2:35 pm 14:35 Sunny 39 4 30 -0.9 71 71 SSE 8 13 30.27 1025 10 16.0934 N/A
2:55 pm 14:55 Sunny 39 3.7 30 -0.9 72 72 SSE 9 15 30.27 1025 10 16.0934 N/A
3:15 pm 15:15 Sunny 39 3.7 31 -0.7 73 73 SSE 9 15 30.26 1025 10 16.0934 N/A
3:35 pm 15:35 Sunny 39 3.7 30 -1 72 72 SSE 10 17 30.26 1025 10 16.0934 N/A
3:55 pm 15:55 Sunny 38 3.6 31 -0.8 73 73 SSE 9 15 30.25 1024 10 16.0934 N/A
4:15 pm 16:15 Sunny 37 3 31 -0.8 76 76 SSE 9 15 30.26 1025 10 16.0934 N/A
4:35 pm 16:35 Sunny 37 2.9 31 -0.7 77 77 SSE 9 15 30.27 1025 10 16.0934 N/A
4:55 pm 16:55 Sunny 37 2.5 31 -0.7 80 80 SSE 8 13 30.26 1025 10 16.0934 N/A
5:15 pm 17:15 Sunny 36 2 30 -1 81 81 SSE 8 13 30.27 1025 10 16.0934 N/A
5:35 pm 17:35 Sunny 35 1.7 30 -1.2 81 81 SSE 8 13 30.27 1025 10 16.0934 N/A
5:55 pm 17:55 Sunny 34 1.1 30 -1.2 85 85 SE 7 11 30.28 1025 10 16.0934 N/A
6:15 pm 18:15 Clear 35 1.5 30 -1.3 82 82 SE 7 11 30.26 1025 10 16.0934 N/A
6:35 pm 18:35 Clear 35 1.4 29 -1.5 81 81 SE 6 9 30.27 1025 10 16.0934 N/A
6:55 pm 18:55 Clear 34 1 29 -1.5 84 84 SE 5 7 30.28 1025 10 16.0934 N/A
7:15 pm 19:15 Clear 33 0.3 29 -1.6 87 87 SE 5 7 30.28 1026 10 16.0934 N/A
7:35 pm 19:35 Clear 32 undefined 29 -1.7 88 88 ESE 6 9 30.29 1026 10 16.0934 N/A
7:55 pm 19:55 Clear 32 undefined 28 -2 87 87 SE 7 11 30.29 1026 10 16.0934 N/A
8:15 pm 20:15 Clear 32 -0.2 28 -2.1 87 87 ESE 6 9 30.28 1025 10 16.0934 N/A
8:35 pm 20:35 Clear 31 -0.5 28 -2.3 88 88 ESE 7 11 30.28 1025 10 16.0934 N/A
8:55 pm 20:55 Clear 29 -1.4 27 -2.7 91 91 ESE 6 9 30.29 1026 10 16.0934 N/A
9:15 pm 21:15 Clear 29 -1.9 27 -3 92 92 ESE 6 9 30.3 1026 10 16.0934 N/A
9:35 pm 21:35 Clear 28 -2.4 26 -3.2 94 94 SE 6 9 30.3 1026 7 11.26538 N/A
9:55 pm 21:55 Clear 27 -2.8 26 -3.6 94 94 ESE 7 11 30.3 1026 7 11.26538 N/A
10:15 pm 22:15 Clear 26 -3.2 25 -4.1 94 94 ESE 7 11 30.3 1026 7 11.26538 N/A
10:35 pm 22:35 Clear 25 -3.8 24 -4.7 94 94 ESE 9 15 30.3 1026 7 11.26538 N/A
10:55 pm 22:55 Clear 24 -4.4 23 -5.2 94 94 SE 8 13 30.3 1026 7 11.26538 N/A
11:15 pm 23:15 Clear with Mist and Fog 24 -4.7 22 -5.5 94 94 SE 6 9 30.31 1026 5 8.0467 N/A
11:35 pm 23:35 Clear with Mist and Fog 23 -5.1 21 -6 93 93 SE 7 11 30.3 1026 5 8.0467 N/A
11:55 pm 23:55 Clear with Mist and Fog 22 -5.3 21 -6.1 94 94 SE 6 9 30.3 1026 5 8.0467 N/A

Powered by AerisWeather